Lid_Strength_Index
5 5 6 6 6 6 6 7 7 7 7 6 7 6 4 4 3 3 3 1 4 6 4 4 4 5 5 6 10 8 8 8 9 12 13 13 13 12 12 11 12 12 13 13 12 13 17 7 7 10 8 6 5 5
5 5 6 6 6 6 6 7 7 7 7 6 6 6 5 4 4 3 4 1 2 6 4 2 2 2 3 4 6 6 8 9 8 11 11 11 12 11 11 14 9 13 11 12 12 13 8 6 7 5 5 6 5 5
5 5 6 6 7 7 7 7 7 7 7 6 6 6 5 4 3 3 4 3 3 5 3 3 3 2 1 2 2 8 6 6 7 7 9 10 12 10 13 13 11 9 7 10 10 9 8 6 5 4 5 5 4 4
5 5 6 7 7 7 7 7 7 7 6 6 6 6 6 5 4 3 4 2 4 4 7 4 0 2 1 1 2 3 5 4 6 7 9 10 11 8 12 10 11 9 8 9 10 8 7 6 5 5 5 4 4 3
5 5 6 7 7 7 6 7 7 6 6 6 6 5 5 5 4 3 2 1 1 3 7 5 2 1 0 1 2 2 3 4 7 9 11 12 9 9 9 9 12 8 9 10 12 7 7 7 5 6 6 5 6 6
5 5 6 6 7 6 7 7 6 6 6 6 5 5 5 5 4 3 4 1 -0 0 5 8 2 3 1 1 2 3 3 4 6 9 10 10 8 9 12 13 11 9 7 6 8 6 6 7 7 8 9 9 9 9
5 5 6 6 7 7 7 7 7 7 6 6 6 5 5 5 4 3 4 2 1 -0 5 8 6 2 2 2 1 2 3 5 5 8 9 10 10 10 12 14 11 10 9 9 7 7 8 8 10 10 10 10 8 9
5 6 6 6 6 7 7 7 7 6 6 6 5 5 5 5 4 3 0 2 0 2 3 8 7 5 2 5 5 3 5 5 6 7 7 9 9 11 14 11 10 10 10 10 10 10 10 9 9 10 10 10 10 10
5 5 5 6 7 6 7 6 7 6 6 5 5 5 4 4 4 2 2 1 -1 2 6 5 8 9 3 4 4 3 3 7 5 8 8 8 12 16 13 11 9 9 10 10 9 9 9 10 9 9 8 9 10 10
4 5 6 6 7 6 6 7 7 6 6 5 5 5 6 4 3 2 2 4 4 3 4 6 3 7 4 5 6 6 4 7 9 8 6 10 13 11 10 10 9 8 7 7 9 10 10 10 10 10 9 9 9 9
4 5 6 7 7 7 6 6 7 6 5 4 6 6 5 4 2 3 5 6 5 7 5 4 5 6 3 7 7 5 7 6 10 9 9 11 12 10 8 8 8 8 8 8 8 8 9 9 10 11 11 11 11 11
5 5 6 7 7 7 6 6 6 6 5 6 7 6 5 5 5 7 7 6 7 8 5 6 5 4 4 3 6 5 8 6 12 6 9 13 10 9 9 9 9 9 9 9 9 10 10 10 10 10 10 11 11 11
5 6 6 7 6 7 7 6 6 6 5 5 6 8 8 7 10 10 13 9 8 5 4 4 6 4 3 4 6 6 10 9 5 9 12 10 9 8 8 9 9 9 9 9 10 10 10 10 10 10 11 10 10 10
6 6 6 7 6 6 6 6 5 5 6 8 10 12 11 9 8 6 6 6 5 4 4 5 5 5 4 7 5 10 7 7 10 12 12 8 8 8 7 7 8 9 8 8 9 9 10 10 10 10 10 10 10 11
5 5 5 6 5 4 4 5 4 4 6 10 10 13 11 6 5 4 3 4 3 3 4 6 5 5 7 8 6 8 10 11 11 11 8 6 5 6 7 7 7 8 8 8 9 9 10 10 11 11 11 10 11 12
5 5 5 4 5 5 4 4 5 5 6 9 10 11 7 6 6 6 5 5 3 3 3 4 7 8 9 8 10 11 11 13 10 8 5 4 5 5 5 6 7 7 7 8 8 9 9 10 10 10 11 11 12 12
5 5 4 4 4 4 4 5 5 8 9 9 10 7 6 5 6 4 4 4 2 4 7 6 10 10 6 9 10 8 10 8 6 5 4 4 4 5 5 6 6 7 7 7 7 8 9 9 9 10 12 12 11 12
5 3 3 3 4 5 4 5 7 9 11 9 10 6 4 4 5 3 3 3 4 5 5 8 5 9 10 12 10 7 7 5 4 4 4 3 3 3 4 5 6 6 7 7 7 8 9 10 11 10 11 11 11 11
4 3 4 4 3 4 7 7 7 11 10 9 6 5 4 4 2 3 3 3 2 2 3 5 8 9 9 6 6 6 5 5 5 4 3 3 3 4 4 5 5 6 6 6 6 7 8 9 10 10 10 10 11 11
5 5 4 4 4 5 9 8 5 8 10 7 5 5 4 4 3 3 3 4 4 5 6 8 7 6 5 5 4 4 3 3 4 5 5 4 3 4 4 5 6 5 6 6 6 8 9 10 10 10 10 10 11 11
5 4 4 3 4 6 7 8 8 6 5 6 5 4 4 4 6 6 6 4 6 7 6 5 4 4 3 4 2 2 3 3 4 4 5 4 3 4 4 4 5 5 6 6 6 8 9 9 10 10 10 11 10 10
4 4 4 5 7 8 8 6 6 5 6 5 4 4 5 7 7 6 4 6 6 4 3 4 4 4 5 4 2 2 2 2 2 3 5 5 4 4 4 4 5 5 6 6 6 6 7 7 7 8 10 10 10 9
4 4 5 7 10 10 9 4 7 6 8 6 4 6 6 6 5 3 7 6 4 3 3 3 3 3 4 3 2 3 2 2 3 3 2 2 2 3 3 4 4 5 5 5 5 5 6 9 8 8 8 9 10 10
5 8 10 10 10 10 7 8 6 6 6 7 8 9 8 7 5 7 8 5 4 3 3 3 5 5 5 5 5 6 5 2 2 2 2 2 3 3 3 3 3 3 4 4 5 5 5 6 8 7 8 8 8 9
11 11 11 12 8 9 10 9 9 9 9 8 8 9 8 6 9 9 8 6 5 4 4 3 3 3 5 5 5 6 5 5 3 2 2 2 2 2 3 3 3 3 3 4 5 5 5 5 6 7 7 8 9 9
13 10 11 9 9 9 9 11 9 8 8 9 8 6 6 8 10 11 8 5 5 4 5 5 6 5 4 3 4 4 4 3 4 4 1 1 1 2 4 4 4 4 3 3 4 5 6 6 6 6 7 7 9 8
13 11 8 5 6 6 7 6 5 8 9 9 7 8 9 11 10 7 5 4 5 4 4 4 3 3 3 3 3 2 2 1 2 2 2 1 1 0 2 3 3 3 2 3 3 4 5 6 6 6 6 6 6 6
9 8 10 7 7 5 9 8 8 9 8 6 6 9 10 9 8 5 4 4 4 4 4 3 3 2 3 3 2 2 2 2 2 2 1 2 3 4 2 2 2 10 3 2 3 3 4 4 5 6 6 6 6 5
8 6 6 8 7 7 7 7 8 5 3 4 7 7 7 4 4 3 4 4 4 3 4 4 4 3 3 3 2 3 3 3 4 5 5 4 4 4 3 3 3 3 3 3 9 6 4 4 4 5 5 6 5 5
8 5 7 7 8 8 6 4 5 3 2 3 3 4 4 4 4 3 3 4 4 4 4 3 3 4 4 4 4 6 5 4 5 6 7 7 7 5 5 5 4 3 3 3 3 4 10 6 7 5 6 5 6 6
5 6 6 6 7 5 4 3 3 3 3 3 3 4 5 5 4 3 3 3 3 3 4 4 5 4 5 5 6 7 8 5 5 6 6 7 7 7 7 7 6 6 4 3 3 4 4 5 5 5 6 6 6 7
6 6 7 8 8 4 3 4 5 5 5 5 4 4 5 5 6 5 4 4 5 5 7 5 5 5 5 6 6 6 10 7 7 8 8 7 6 6 6 7 7 7 6 5 3 3 4 5 5 5 5 5 5 5
5 5 5 6 7 7 5 5 6 7 6 6 6 5 5 5 7 8 5 5 5 5 6 5 6 6 7 7 7 7 8 8 9 11 10 11 10 10 8 6 6 7 6 5 5 5 4 4 4 4 4 4 5 5